Location: Ferma
(41.9500°N, 44.5167°E)
Time: 21:04:06
(UTC+00:00)

FENGYUN 1C DEB - Pass Details

Date: 19 August 2022
Orbit: 606 x 930 km, 99.7° (Epoch: 01 October)

Event Time Altitude Azimuth Distance (km) Brightness Sun altitude
Exits shadow 18:26:49 37° 204° (SSW) 1,242 ? -24.4°
Maximum altitude 18:28:38 54° 259° (W) 999 ? -24.6°
Drops below altitude 10° 18:34:08 10° 336° (NNW) 2,529 ? -25.3°
Sets 18:36:41 0° 341° (NNW) 3,510 ? -25.6°
